| time (UTC) | temp F | wind direction | speed MPH | gust MPH | rain 1hr in | rain 24hr in | rain mn in | humidity % | barometer mb |
| 20260906084535 | 59 | 42 | 2.0 | 6.0 | 0.00 | 0.00 | 0.00 | 99 | 1015.2 |
| 20260906083532 | 59 | 38 | 2.0 | 7.0 | 0.00 | 0.00 | 0.00 | 99 | 1015.2 |
| 20260906082527 | 59 | 42 | 3.0 | 6.0 | 0.00 | 0.00 | 0.00 | 99 | 1014.9 |
| 20260906081523 | 59 | 72 | 0.0 | 1.0 | 0.00 | 0.00 | 0.00 | 99 | 1014.9 |
| 20260906080519 | 59 | 37 | 1.0 | 3.0 | 0.00 | 0.00 | 0.00 | 98 | 1014.9 |
| 20260906075535 | 59 | 62 | 1.0 | 3.0 | 0.00 | 0.00 | 0.00 | 98 | 1015.0 |
| 20260906074531 | 59 | 82 | 1.0 | 2.0 | 0.00 | 0.00 | 0.00 | 98 | 1014.8 |
| 20260906073526 | 59 | 66 | 2.0 | 3.0 | 0.00 | 0.00 | 0.00 | 99 | 1014.7 |
| 20260906072522 | 59 | 48 | 3.0 | 4.0 | 0.00 | 0.00 | 0.00 | 97 | 1014.6 |
| 20260906071518 | 60 | 26 | 2.0 | 6.0 | 0.00 | 0.00 | 0.00 | 95 | 1014.5 |
| 20260906070533 | 60 | 44 | 2.0 | 3.0 | 0.00 | 0.00 | 0.00 | 97 | 1014.5 |
| 20260906065549 | 60 | 0.0 | 0.0 | 0.00 | 0.00 | 0.00 | 97 | 1014.4 | |
| 20260906064524 | 60 | 0.0 | 0.0 | 0.00 | 0.00 | 0.00 | 96 | 1014.4 | |
| 20260906063521 | 61 | 206 | 0.0 | 1.0 | 0.00 | 0.00 | 0.00 | 96 | 1014.3 |
| 20260906062517 | 61 | 227 | 0.0 | 1.0 | 0.00 | 0.00 | 0.00 | 94 | 1014.4 |
| 20260906061533 | 61 | 152 | 0.0 | 2.0 | 0.00 | 0.00 | 0.00 | 93 | 1014.6 |
| 20260906060529 | 61 | 152 | 0.0 | 1.0 | 0.00 | 0.00 | 0.00 | 93 | 1014.6 |
| 20260906055525 | 61 | 108 | 1.0 | 2.0 | 0.00 | 0.00 | 0.00 | 93 | 1014.7 |
| 20260906054521 | 61 | 91 | 1.0 | 2.0 | 0.00 | 0.00 | 0.00 | 92 | 1014.5 |
| 20260906053536 | 62 | 159 | 1.0 | 2.0 | 0.00 | 0.00 | 0.00 | 91 | 1014.6 |
| 20260906052532 | 62 | 46 | 2.0 | 4.0 | 0.00 | 0.00 | 0.00 | 90 | 1014.6 |
| 20260906051528 | 62 | 45 | 2.0 | 3.0 | 0.00 | 0.00 | 0.00 | 90 | 1014.5 |
| 20260906050524 | 62 | 2 | 2.0 | 3.0 | 0.00 | 0.00 | 0.00 | 90 | 1014.7 |
| 20260906045531 | 61 | 52 | 1.0 | 2.0 | 0.00 | 0.00 | 0.00 | 91 | 1014.5 |
| 20260906044527 | 62 | 244 | 0.0 | 1.0 | 0.00 | 0.00 | 0.00 | 93 | 1014.6 |
| 20260906043523 | 62 | 340 | 1.0 | 2.0 | 0.00 | 0.00 | 0.00 | 93 | 1014.6 |
| 20260906042519 | 62 | 41 | 4.0 | 8.0 | 0.00 | 0.00 | 0.00 | 92 | 1014.6 |
| 20260906041535 | 62 | 35 | 3.0 | 6.0 | 0.00 | 0.00 | 0.00 | 96 | 1014.6 |
| 20260906040531 | 63 | 59 | 2.0 | 4.0 | 0.00 | 0.00 | 0.00 | 96 | 1014.5 |
| 20260906035526 | 63 | 71 | 2.0 | 3.0 | 0.00 | 0.00 | 0.00 | 96 | 1014.5 |
| 20260906034522 | 63 | 68 | 2.0 | 3.0 | 0.00 | 0.00 | 0.00 | 96 | 1014.5 |
| 20260906033519 | 63 | 68 | 1.0 | 2.0 | 0.00 | 0.00 | 0.00 | 96 | 1014.3 |
| 20260906032515 | 63 | 52 | 3.0 | 6.0 | 0.00 | 0.00 | 0.00 | 96 | 1014.3 |
| 20260906031531 | 63 | 47 | 3.0 | 7.0 | 0.00 | 0.00 | 0.00 | 96 | 1014.2 |
| 20260906030527 | 63 | 41 | 3.0 | 6.0 | 0.00 | 0.00 | 0.00 | 96 | 1014.0 |
| 20260906025523 | 63 | 43 | 2.0 | 6.0 | 0.00 | 0.00 | 0.00 | 95 | 1014.2 |
| 20260906024518 | 63 | 35 | 2.0 | 6.0 | 0.00 | 0.00 | 0.00 | 95 | 1014.1 |
| 20260906023615 | 63 | 31 | 3.0 | 6.0 | 0.00 | 0.00 | 0.00 | 95 | 1013.9 |
| 20260906022531 | 63 | 33 | 2.0 | 6.0 | 0.00 | 0.00 | 0.00 | 95 | 1013.9 |
| 20260906021610 | 63 | 43 | 2.0 | 4.0 | 0.00 | 0.00 | 0.00 | 95 | 1013.8 |
| 20260906020523 | 63 | 55 | 3.0 | 4.0 | 0.00 | 0.00 | 0.00 | 94 | 1014.0 |
| 20260906015519 | 63 | 48 | 2.0 | 4.0 | 0.00 | 0.00 | 0.00 | 94 | 1013.8 |
| 20260906014536 | 63 | 51 | 2.0 | 4.0 | 0.00 | 0.00 | 0.00 | 93 | 1013.9 |
| 20260906013551 | 63 | 50 | 2.0 | 4.0 | 0.00 | 0.00 | 0.00 | 93 | 1014.1 |
| 20260906012526 | 64 | 54 | 1.0 | 3.0 | 0.00 | 0.00 | 0.00 | 92 | 1014.0 |
| 20260906011523 | 64 | 57 | 1.0 | 3.0 | 0.00 | 0.00 | 0.00 | 91 | 1013.8 |
| 20260906010520 | 65 | 61 | 3.0 | 6.0 | 0.00 | 0.00 | 0.00 | 90 | 1014.0 |
| 20260906005516 | 65 | 55 | 5.0 | 10.0 | 0.00 | 0.00 | 0.00 | 90 | 1013.9 |
| 20260906004532 | 64 | 57 | 3.0 | 7.0 | 0.00 | 0.00 | 0.00 | 91 | 1013.9 |
| 20260906003548 | 63 | 48 | 2.0 | 4.0 | 0.00 | 0.00 | 0.00 | 93 | 1013.8 |
| 20260906002545 | 62 | 181 | 0.0 | 1.0 | 0.00 | 0.00 | 0.00 | 96 | 1013.6 |
| 20260906001521 | 62 | 0.0 | 0.0 | 0.00 | 0.00 | 0.00 | 96 | 1013.6 | |
| 20260906000517 | 62 | 228 | 1.0 | 1.0 | 0.00 | 0.00 | 0.00 | 95 | 1013.5 |
| 20260905235533 | 63 | 224 | 0.0 | 1.0 | 0.00 | 0.00 | 0.00 | 94 | 1013.5 |
| 20260905234530 | 63 | 217 | 1.0 | 1.0 | 0.00 | 0.00 | 0.00 | 93 | 1013.7 |
| 20260905233525 | 64 | 238 | 1.0 | 2.0 | 0.00 | 0.00 | 0.00 | 90 | 1013.5 |
| 20260905232521 | 66 | 62 | 2.0 | 6.0 | 0.00 | 0.00 | 0.00 | 86 | 1013.3 |
| 20260905231517 | 65 | 54 | 2.0 | 7.0 | 0.00 | 0.00 | 0.00 | 88 | 1013.1 |
| 20260905230614 | 66 | 226 | 0.0 | 1.0 | 0.00 | 0.00 | 0.00 | 86 | 1013.1 |
| 20260905225629 | 67 | 32 | 3.0 | 7.0 | 0.00 | 0.00 | 0.00 | 82 | 1013.1 |
| 20260905224526 | 68 | 27 | 1.0 | 3.0 | 0.00 | 0.00 | 0.00 | 81 | 1013.0 |
| 20260905223522 | 68 | 43 | 5.0 | 14.0 | 0.00 | 0.00 | 0.00 | 79 | 1013.0 |
| 20260905222518 | 69 | 36 | 4.0 | 8.0 | 0.00 | 0.00 | 0.00 | 78 | 1013.0 |
| 20260905221555 | 69 | 33 | 4.0 | 9.0 | 0.00 | 0.00 | 0.00 | 78 | 1012.9 |
| 20260905220531 | 70 | 26 | 3.0 | 8.0 | 0.00 | 0.00 | 0.00 | 77 | 1012.7 |
| 20260905215527 | 70 | 5 | 3.0 | 8.0 | 0.00 | 0.00 | 0.00 | 77 | 1012.6 |
| 20260905214523 | 71 | 39 | 3.0 | 10.0 | 0.00 | 0.00 | 0.00 | 77 | 1012.6 |
| 20260905213519 | 71 | 37 | 5.0 | 9.0 | 0.00 | 0.00 | 0.00 | 76 | 1012.5 |
| 20260905212555 | 71 | 34 | 5.0 | 13.0 | 0.00 | 0.00 | 0.00 | 76 | 1012.5 |
| 20260905211551 | 71 | 50 | 4.0 | 9.0 | 0.00 | 0.00 | 0.00 | 75 | 1012.4 |
| 20260905210529 | 71 | 39 | 5.0 | 9.0 | 0.00 | 0.00 | 0.00 | 75 | 1012.3 |
| 20260905205524 | 72 | 37 | 5.0 | 10.0 | 0.00 | 0.00 | 0.00 | 72 | 1012.3 |
| 20260905204520 | 72 | 44 | 6.0 | 14.0 | 0.00 | 0.00 | 0.00 | 73 | 1012.3 |
| 20260905203536 | 72 | 30 | 4.0 | 10.0 | 0.00 | 0.00 | 0.00 | 73 | 1012.3 |
| 20260905202531 | 71 | 41 | 4.0 | 7.0 | 0.00 | 0.00 | 0.00 | 75 | 1012.2 |
| 20260905201527 | 72 | 38 | 6.0 | 11.0 | 0.00 | 0.00 | 0.00 | 74 | 1012.1 |
| 20260905200523 | 72 | 50 | 5.0 | 10.0 | 0.00 | 0.00 | 0.00 | 74 | 1012.1 |
| 20260905195519 | 72 | 31 | 3.0 | 9.0 | 0.00 | 0.00 | 0.00 | 75 | 1012.1 |
| 20260905194534 | 72 | 41 | 6.0 | 10.0 | 0.00 | 0.00 | 0.00 | 76 | 1012.3 |
| 20260905193530 | 71 | 346 | 3.0 | 10.0 | 0.00 | 0.00 | 0.00 | 76 | 1012.3 |
| 20260905192526 | 70 | 10 | 2.0 | 7.0 | 0.00 | 0.00 | 0.00 | 79 | 1012.3 |
| 20260905191522 | 71 | 1 | 2.0 | 7.0 | 0.00 | 0.00 | 0.00 | 78 | 1012.2 |
| 20260905190518 | 72 | 44 | 4.0 | 10.0 | 0.00 | 0.00 | 0.00 | 77 | 1012.1 |
| 20260905185534 | 73 | 49 | 4.0 | 10.0 | 0.00 | 0.00 | 0.00 | 76 | 1012.2 |
| 20260905184549 | 72 | 341 | 3.0 | 9.0 | 0.00 | 0.00 | 0.00 | 78 | 1012.2 |
| 20260905183525 | 72 | 37 | 3.0 | 9.0 | 0.00 | 0.00 | 0.00 | 78 | 1012.1 |
| 20260905182541 | 70 | 50 | 6.0 | 13.0 | 0.00 | 0.00 | 0.00 | 80 | 1012.2 |
| 20260905181517 | 70 | 45 | 4.0 | 10.0 | 0.00 | 0.00 | 0.00 | 81 | 1012.1 |
| 20260905180533 | 70 | 49 | 7.0 | 14.0 | 0.00 | 0.00 | 0.00 | 79 | 1012.2 |
| 20260905175549 | 70 | 39 | 3.0 | 8.0 | 0.00 | 0.00 | 0.00 | 81 | 1012.2 |
| 20260905174545 | 70 | 44 | 5.0 | 10.0 | 0.00 | 0.00 | 0.00 | 80 | 1012.1 |
| 20260905173521 | 70 | 49 | 3.0 | 11.0 | 0.00 | 0.00 | 0.00 | 82 | 1012.2 |
| 20260905172517 | 69 | 48 | 4.0 | 8.0 | 0.00 | 0.00 | 0.00 | 83 | 1012.2 |
| 20260905171552 | 69 | 43 | 5.0 | 10.0 | 0.00 | 0.00 | 0.00 | 84 | 1012.3 |
| 20260905170529 | 69 | 36 | 4.0 | 9.0 | 0.00 | 0.00 | 0.00 | 85 | 1012.2 |
| 20260905165525 | 70 | 25 | 4.0 | 10.0 | 0.00 | 0.00 | 0.00 | 82 | 1012.1 |
| 20260905164521 | 70 | 43 | 3.0 | 8.0 | 0.00 | 0.00 | 0.00 | 84 | 1012.3 |
| 20260905163517 | 69 | 1 | 3.0 | 7.0 | 0.00 | 0.00 | 0.00 | 85 | 1012.4 |
| 20260905162533 | 69 | 19 | 4.0 | 7.0 | 0.00 | 0.00 | 0.00 | 85 | 1012.5 |
| 20260905161529 | 69 | 34 | 3.0 | 8.0 | 0.00 | 0.00 | 0.00 | 86 | 1012.6 |
| 20260905160525 | 68 | 31 | 4.0 | 10.0 | 0.00 | 0.00 | 0.00 | 88 | 1012.6 |
| 20260905155522 | 67 | 31 | 3.0 | 10.0 | 0.00 | 0.00 | 0.00 | 89 | 1012.6 |
| 20260905154517 | 67 | 34 | 3.0 | 7.0 | 0.00 | 0.00 | 0.00 | 91 | 1012.9 |
| 20260905153534 | 66 | 31 | 4.0 | 9.0 | 0.00 | 0.00 | 0.00 | 92 | 1013.0 |
| 20260905152550 | 66 | 42 | 5.0 | 11.0 | 0.00 | 0.00 | 0.00 | 92 | 1013.0 |
| 20260905151526 | 67 | 32 | 3.0 | 8.0 | 0.00 | 0.00 | 0.00 | 90 | 1013.0 |
| 20260905150604 | 67 | 36 | 3.0 | 9.0 | 0.00 | 0.00 | 0.00 | 90 | 1012.9 |
| 20260905145520 | 67 | 17 | 3.0 | 9.0 | 0.00 | 0.00 | 0.00 | 91 | 1012.8 |
| 20260905144516 | 66 | 19 | 2.0 | 4.0 | 0.00 | 0.00 | 0.00 | 92 | 1012.8 |
| 20260905143533 | 66 | 21 | 2.0 | 4.0 | 0.00 | 0.00 | 0.00 | 92 | 1012.9 |
| 20260905142528 | 65 | 44 | 3.0 | 7.0 | 0.00 | 0.00 | 0.00 | 93 | 1012.8 |
| 20260905141524 | 65 | 17 | 2.0 | 4.0 | 0.00 | 0.00 | 0.00 | 94 | 1012.9 |
| 20260905140521 | 65 | 43 | 4.0 | 10.0 | 0.00 | 0.00 | 0.00 | 94 | 1012.9 |
| 20260905135518 | 66 | 30 | 4.0 | 11.0 | 0.00 | 0.00 | 0.00 | 93 | 1012.9 |
| 20260905134534 | 66 | 18 | 3.0 | 8.0 | 0.00 | 0.00 | 0.00 | 92 | 1012.7 |
| 20260905133530 | 66 | 16 | 3.0 | 7.0 | 0.00 | 0.00 | 0.00 | 92 | 1012.8 |
| 20260905132526 | 65 | 61 | 6.0 | 10.0 | 0.00 | 0.00 | 0.00 | 93 | 1012.7 |
| 20260905131521 | 65 | 59 | 4.0 | 7.0 | 0.00 | 0.00 | 0.00 | 93 | 1012.5 |
| 20260905130517 | 64 | 58 | 3.0 | 6.0 | 0.00 | 0.00 | 0.00 | 96 | 1012.5 |
| 20260905125533 | 64 | 82 | 1.0 | 3.0 | 0.00 | 0.00 | 0.00 | 98 | 1012.5 |
| 20260905124530 | 62 | 0.0 | 0.0 | 0.00 | 0.00 | 0.00 | 99 | 1012.6 | |
| 20260905123525 | 61 | 0.0 | 0.0 | 0.00 | 0.00 | 0.00 | 99 | 1012.4 | |
| 20260905122521 | 61 | 0.0 | 0.0 | 0.00 | 0.00 | 0.00 | 99 | 1012.4 | |
| 20260905121516 | 59 | 0.0 | 0.0 | 0.00 | 0.00 | 0.00 | 99 | 1012.4 | |
| 20260905120533 | 58 | 0.0 | 0.0 | 0.00 | 0.00 | 0.00 | 99 | 1012.4 | |
| 20260905115528 | 57 | 0.0 | 0.0 | 0.00 | 0.00 | 0.00 | 99 | 1012.3 | |
| 20260905114525 | 57 | 0.0 | 0.0 | 0.00 | 0.00 | 0.00 | 99 | 1012.2 | |
| 20260905113520 | 56 | 0.0 | 0.0 | 0.00 | 0.00 | 0.00 | 99 | 1012.2 | |
| 20260905112517 | 56 | 0.0 | 0.0 | 0.00 | 0.00 | 0.00 | 99 | 1012.0 | |
| 20260905111533 | 56 | 196 | 1.0 | 2.0 | 0.00 | 0.00 | 0.00 | 99 | 1012.1 |
| 20260905110529 | 55 | 203 | 1.0 | 2.0 | 0.00 | 0.00 | 0.00 | 99 | 1011.9 |
| 20260905105524 | 55 | 199 | 1.0 | 1.0 | 0.00 | 0.00 | 0.00 | 99 | 1011.8 |
| 20260905104621 | 54 | 211 | 1.0 | 1.0 | 0.00 | 0.00 | 0.00 | 99 | 1011.6 |
| 20260905103518 | 54 | 0.0 | 0.0 | 0.00 | 0.00 | 0.00 | 99 | 1011.5 | |
| 20260905102533 | 54 | 0.0 | 0.0 | 0.00 | 0.00 | 0.00 | 99 | 1011.4 | |
| 20260905101529 | 54 | 0.0 | 0.0 | 0.00 | 0.00 | 0.00 | 99 | 1011.4 | |
| 20260905100525 | 54 | 0.0 | 0.0 | 0.00 | 0.00 | 0.00 | 99 | 1011.5 | |
| 20260905095540 | 54 | 0.0 | 0.0 | 0.00 | 0.00 | 0.00 | 99 | 1011.4 | |
| 20260905094516 | 54 | 0.0 | 0.0 | 0.00 | 0.00 | 0.00 | 99 | 1011.3 | |
| 20260905093531 | 54 | 0.0 | 0.0 | 0.00 | 0.00 | 0.00 | 99 | 1011.4 | |
| 20260905092527 | 54 | 0.0 | 0.0 | 0.00 | 0.00 | 0.00 | 99 | 1011.2 | |
| 20260905091523 | 54 | 0.0 | 0.0 | 0.00 | 0.00 | 0.00 | 99 | 1011.3 | |
| 20260905090520 | 54 | 0.0 | 0.0 | 0.00 | 0.00 | 0.00 | 99 | 1011.3 | |
| 20260905085516 | 54 | 0.0 | 0.0 | 0.00 | 0.00 | 0.00 | 99 | 1011.2 |